Theta_e
303 303 303 303 308 315 312 310 309 310 310 309 309 308 308 307 307 307 307 308 309 309 309 309 308 307 306 306 303 301 302 303 303 304 305 311 311 310 309 307 305 304 301 300 300 300 298
303 303 303 303 311 315 311 310 311 313 313 312 311 310 309 308 308 307 307 307 308 308 308 308 308 308 305 304 302 300 302 302 302 303 303 306 310 311 307 303 304 302 300 299 300 298 297
303 303 303 302 313 314 311 312 314 316 315 315 315 315 313 311 310 307 306 306 307 307 307 307 308 308 305 303 301 300 301 301 302 302 302 306 310 309 306 302 302 302 300 298 297 299 297
304 304 303 303 314 313 313 315 316 317 318 317 317 317 316 313 310 308 306 306 306 306 306 306 306 307 304 301 300 299 300 301 301 301 302 305 306 307 304 303 301 303 301 303 295 296 297
305 304 303 303 311 315 315 316 317 318 318 318 318 318 317 316 313 310 306 307 307 305 305 306 305 305 303 301 300 299 300 300 301 301 300 301 301 301 302 302 301 299 303 304 299 291 297
305 304 303 302 306 316 316 317 317 318 319 319 319 319 319 318 314 312 309 309 308 306 305 305 305 304 301 300 299 298 299 299 300 301 300 301 297 294 292 297 302 299 300 297 299 292 291
310 307 305 304 304 307 313 316 317 318 318 320 320 320 319 319 315 310 309 308 308 307 305 301 299 298 299 299 299 298 299 299 299 299 296 294 297 297 292 291 292 294 295 294 292 290 290
320 321 320 318 314 311 310 310 312 314 317 320 321 320 319 319 316 310 307 307 305 306 302 300 300 299 298 298 298 298 298 298 297 296 293 295 297 292 291 291 292 292 292 292 291 291 290
321 321 321 321 321 321 321 321 321 321 321 321 321 321 321 320 316 312 306 305 306 306 303 301 300 298 298 298 296 296 297 295 293 293 292 298 293 292 292 290 291 291 291 291 291 289 288
322 321 321 321 321 321 321 320 321 321 321 321 321 320 320 320 315 309 305 303 306 307 305 306 300 298 297 296 296 295 294 295 293 293 291 292 291 292 291 292 290 292 290 290 290 290 292
324 323 322 322 322 321 321 321 321 321 321 321 321 320 320 320 317 306 305 304 305 307 314 302 299 297 297 296 294 295 294 294 293 292 293 296 291 291 291 292 290 291 289 289 289 289 287
322 322 322 321 322 323 322 321 321 321 322 321 321 321 320 320 316 306 304 304 306 310 312 304 298 297 296 295 294 294 294 294 292 292 290 290 289 290 290 289 290 289 288 288 288 289 293
321 321 321 321 321 321 321 321 322 321 321 322 321 321 321 321 316 305 304 307 310 313 305 306 301 296 295 296 294 293 292 292 295 298 295 291 290 289 289 290 289 289 290 299 299 296 299
319 319 319 320 321 320 320 320 321 322 321 322 322 321 321 321 316 304 305 305 314 312 309 298 297 296 298 294 294 293 293 294 289 290 292 295 299 289 289 289 290 289 290 298 299 298 295
317 317 317 318 318 319 319 319 321 321 321 321 321 321 321 321 311 304 306 310 314 309 301 300 298 298 299 294 293 293 292 293 291 289 296 293 293 288 289 288 288 288 290 287 287 283 288
312 313 315 315 316 317 317 318 319 319 318 320 319 320 320 319 304 304 304 313 310 300 296 297 304 301 301 297 295 293 293 292 291 288 288 291 294 289 288 288 287 287 287 290 290 295 292
304 305 307 310 312 314 315 316 318 318 319 319 318 318 317 307 302 303 312 306 303 299 298 298 298 299 297 297 294 293 296 293 290 288 288 288 289 288 287 287 287 286 287 287 289 289 293
299 302 303 303 305 309 312 313 314 315 316 317 316 314 314 303 308 300 302 300 299 296 296 296 294 295 296 293 292 292 293 293 290 289 290 288 288 289 288 285 285 286 286 287 293 291 285
295 296 298 300 303 303 306 310 312 312 312 314 314 315 315 313 313 304 300 298 297 295 295 295 294 293 294 293 302 293 292 290 289 289 289 289 290 291 291 286 284 286 286 287 285 285 284
294 294 294 296 298 300 303 304 307 308 308 309 313 313 310 303 300 305 305 302 302 295 295 295 294 293 292 292 291 299 292 290 289 289 291 290 289 291 305 298 288 286 287 287 288 287 291
295 295 294 294 295 298 300 302 304 305 305 309 310 311 310 310 305 299 301 304 301 300 294 294 294 293 294 297 297 295 295 292 289 289 291 289 288 287 287 288 287 287 288 288 287 289 290
295 294 294 295 296 295 297 300 303 304 305 306 307 309 308 306 304 299 300 301 303 304 299 299 296 301 294 299 302 305 294 292 292 288 289 287 290 286 288 287 288 287 287 288 288 288 288
295 295 294 294 295 298 299 299 300 304 305 305 306 306 306 307 302 301 303 303 305 303 304 302 298 300 296 296 294 292 293 292 292 289 289 288 289 289 292 286 286 289 288 287 288 288 288
298 297 297 296 296 296 300 301 300 301 303 304 305 305 305 304 304 305 304 302 304 305 305 302 298 298 296 294 293 290 289 288 287 288 290 289 289 289 290 288 294 289 283 284 287 286 285
294 296 297 297 298 297 297 299 300 299 300 303 304 304 304 304 304 304 304 304 303 302 300 298 296 295 293 289 292 293 290 288 288 287 287 289 289 291 291 288 290 291 283 284 286 286 285
295 294 294 295 296 296 297 297 298 300 299 299 302 303 304 302 303 303 303 303 304 299 295 292 291 290 289 292 294 296 299 293 289 285 285 287 289 290 287 289 293 286 282 282 283 284 281
295 294 294 293 294 294 295 297 297 297 298 298 299 300 302 301 302 303 302 303 302 297 296 289 288 288 289 292 294 294 294 290 292 288 283 286 287 288 289 289 289 286 282 282 285 286 280
293 295 295 294 294 294 295 294 295 296 297 298 298 298 300 300 301 301 301 302 300 297 301 290 290 287 287 291 293 292 291 288 287 287 285 287 288 287 288 288 288 282 281 285 284 281 282
293 294 295 294 293 292 291 293 293 296 296 297 298 298 298 298 299 300 300 299 300 301 299 292 294 289 289 291 290 292 292 285 286 289 286 289 289 288 288 288 283 282 283 283 282 283 282
Wind_Speed
16 17 18 18 19 19 19 20 21 22 22 21 20 20 19 16 15 16 15 13 10 8 7 6 8 12 8 3 3 12 8 6 5 3 1 2 4 5 5 5 4 4 4 6 8 9 11
14 14 15 17 18 19 19 20 20 21 21 21 20 21 20 18 16 15 14 12 9 8 9 9 10 10 7 1 6 12 6 6 6 5 4 1 4 8 9 5 4 5 12 10 2 5 6
15 15 15 15 16 17 18 19 21 22 23 22 21 20 19 18 17 15 15 13 10 8 10 9 9 9 6 1 4 11 8 6 6 5 5 6 7 2 6 6 12 11 5 3 1 3 2
15 16 16 16 17 17 18 19 20 22 24 24 25 24 21 19 17 14 13 14 12 10 11 8 7 6 1 2 4 8 5 4 6 5 6 8 8 9 5 15 5 3 3 2 1 1 6
16 17 17 16 16 17 18 19 21 22 23 25 26 26 25 23 21 17 14 16 15 11 10 6 5 3 1 3 5 11 5 3 2 4 5 5 3 7 6 4 3 4 2 3 2 2 4
16 16 16 16 16 17 18 19 20 22 24 25 26 27 27 27 22 17 18 19 10 6 5 6 2 3 2 4 5 12 6 3 1 2 2 2 4 4 3 3 4 4 3 4 5 2 3
19 18 17 15 15 15 16 18 20 21 22 25 27 28 28 28 23 19 16 10 6 1 6 4 5 4 3 7 1 7 4 1 1 3 3 4 4 4 4 3 3 3 3 4 1 2 2
16 17 18 18 18 18 18 19 19 19 21 23 24 25 27 28 22 22 16 6 5 4 3 3 1 1 2 7 2 7 4 3 4 3 3 3 2 3 4 2 2 2 2 4 2 1 1
15 14 14 15 16 17 17 17 18 20 20 21 22 24 27 27 20 24 17 11 8 9 1 1 1 2 1 3 1 6 6 3 4 3 2 5 3 7 2 2 2 1 3 2 2 6 1
17 18 19 19 19 19 18 19 19 20 22 23 25 25 25 25 17 21 12 13 9 11 4 2 2 0 1 1 1 5 4 3 4 3 2 4 4 5 3 2 3 3 3 2 2 3 3
22 22 22 23 23 23 23 22 22 22 22 23 23 25 27 27 22 15 14 10 7 7 4 2 1 3 4 0 1 2 5 2 4 3 1 0 5 3 2 2 4 3 3 2 2 2 3
22 24 25 25 25 25 25 25 25 24 24 23 24 24 24 26 22 15 11 7 5 5 6 3 1 3 5 4 4 3 0 4 5 4 3 2 0 3 2 2 1 5 3 2 2 2 2
21 23 24 24 24 25 25 25 26 26 25 26 26 25 25 25 19 12 8 7 4 3 1 2 1 3 2 3 3 6 5 1 3 1 3 1 2 2 3 3 1 2 2 3 3 1 4
23 23 24 25 25 24 24 22 24 26 28 29 27 28 27 25 18 8 7 3 3 2 4 1 1 1 3 2 2 1 1 4 3 1 2 4 5 7 5 2 4 4 2 4 6 3 3
24 23 23 23 22 23 23 24 24 25 27 30 31 30 27 21 12 3 3 2 6 4 2 1 1 0 2 0 2 3 5 4 5 9 8 4 4 1 1 2 1 5 3 1 5 2 2
25 24 24 23 23 23 23 23 24 26 26 24 27 29 26 18 9 4 2 6 5 4 5 1 2 1 4 1 2 2 2 4 3 3 2 1 5 1 2 3 3 2 6 3 0 4 6
27 26 26 25 25 24 24 23 23 22 24 25 26 10 9 10 8 5 3 7 4 5 5 4 7 6 9 5 6 4 4 3 3 4 3 2 1 1 2 8 8 4 3 1 1 3 4
27 28 28 27 26 25 24 23 23 22 21 24 11 4 7 12 3 1 3 5 2 4 7 6 3 4 6 6 6 6 8 5 10 12 6 5 3 5 8 0 1 2 6 6 4 6 2
27 26 26 26 26 25 24 24 23 21 21 18 6 9 14 13 4 4 3 4 5 6 5 6 7 7 4 6 4 6 5 1 11 7 6 6 3 4 3 2 4 4 6 4 4 2 9
28 28 26 24 24 24 24 24 24 24 25 21 9 3 5 10 9 4 4 5 4 9 5 5 2 3 2 4 3 4 4 1 7 6 3 9 4 7 12 0 4 6 7 12 8 4 7
29 29 28 27 24 22 22 22 22 21 19 13 6 5 5 3 4 5 2 2 3 5 5 3 2 9 8 6 4 8 7 3 5 8 6 5 5 5 10 9 8 9 8 16 21 24 12
30 30 29 28 27 25 23 21 17 16 17 14 8 7 6 7 8 4 5 5 4 6 6 6 7 7 8 7 10 6 7 5 5 3 6 4 4 2 5 7 9 15 14 19 23 23 25
30 29 27 26 26 23 22 20 17 16 16 15 13 19 12 5 4 3 5 6 6 4 12 11 8 3 9 20 9 7 15 7 6 9 9 5 4 1 5 3 7 13 14 23 13 9 20
26 25 25 23 24 22 20 20 19 16 19 22 22 20 11 13 8 10 5 8 7 13 16 9 10 6 4 5 6 2 8 9 11 12 14 6 5 3 4 3 7 1 3 1 13 5 10
27 26 25 24 25 26 24 19 19 19 20 23 27 24 10 10 14 10 17 13 13 14 7 7 10 8 6 7 1 2 2 3 5 7 6 5 4 2 3 3 12 6 3 4 5 6 13
24 25 30 27 26 28 23 22 22 20 21 23 28 24 26 10 11 24 13 17 11 4 2 6 6 10 14 4 3 5 5 3 4 3 1 9 7 6 3 4 7 2 3 4 3 4 4
28 23 20 24 25 27 24 23 24 25 21 22 26 27 25 13 18 19 9 10 8 4 2 3 7 8 12 4 6 6 5 5 5 7 7 6 4 14 11 6 9 4 7 6 2 3 12
30 28 26 22 22 23 23 27 28 21 21 21 28 25 25 20 27 26 26 19 14 9 8 5 4 4 3 5 5 4 5 6 2 4 6 9 10 5 7 6 11 11 7 7 2 10 21
25 25 24 20 22 25 27 26 25 24 20 20 27 27 22 25 22 30 28 32 29 31 18 15 5 6 11 4 4 2 3 2 3 4 4 5 6 6 11 7 2 25 2 12 12 21 15
Wind_Direction
21 20 20 21 22 23 24 24 25 23 21 20 17 13 9 3 2 4 1 1 6 8 358 334 326 338 338 327 337 349 348 342 349 343 333 163 147 128 116 103 84 82 132 77 108 125 115
22 25 23 22 22 22 24 25 26 25 25 24 21 16 11 5 356 355 358 357 349 344 340 327 325 330 343 326 326 348 353 345 342 360 28 108 123 119 107 79 73 109 111 124 115 118 128
16 15 17 21 25 26 27 27 26 24 23 22 19 15 11 6 359 346 346 344 335 326 330 319 318 329 320 284 342 348 351 351 14 37 58 103 123 138 107 97 122 132 96 114 72 168 149
17 14 15 16 19 23 26 26 25 23 21 18 14 9 5 1 356 348 339 335 316 305 328 318 316 325 288 351 346 354 359 17 36 56 79 97 105 104 76 117 68 79 90 179 102 170 161
19 16 12 12 18 21 21 20 18 17 17 16 14 12 9 4 357 352 342 331 314 294 307 295 316 343 92 313 339 3 13 31 41 73 84 115 130 85 96 84 41 23 251 217 239 101 167
25 23 22 15 12 13 13 12 11 9 8 8 7 5 4 0 357 359 348 337 331 314 329 304 291 133 113 326 336 1 358 11 75 161 156 132 71 87 53 112 229 215 233 244 234 187 209
25 24 21 21 16 8 6 6 5 3 4 4 2 1 1 358 356 357 0 354 354 292 357 89 1 336 343 340 323 357 7 79 74 84 53 21 86 205 181 187 144 143 191 245 239 107 289
18 16 16 14 12 9 6 2 360 0 360 359 360 1 0 357 353 356 358 28 41 326 314 2 6 231 320 347 302 360 7 135 108 110 335 25 231 170 120 132 146 151 170 247 251 131 249
359 358 358 357 357 358 357 355 354 352 352 354 355 355 354 355 350 351 357 16 6 357 329 312 357 320 337 334 7 353 21 68 83 108 36 173 130 144 124 79 162 230 206 210 252 330 256
339 340 339 339 340 340 341 342 344 346 347 348 349 353 353 354 355 345 349 345 346 342 61 226 255 279 312 327 319 14 29 44 48 154 115 98 139 151 146 186 166 256 106 96 322 3 262
331 330 331 332 331 331 332 333 334 337 340 342 346 348 349 351 346 345 337 330 324 337 354 86 346 289 328 247 300 18 28 53 125 123 148 159 151 161 188 209 177 187 143 148 150 143 355
320 321 321 322 321 323 323 326 327 329 330 332 335 338 340 340 341 335 339 336 320 38 262 18 13 342 337 4 347 338 111 94 112 114 65 85 146 165 150 105 126 139 104 81 72 124 248
313 312 313 317 318 316 317 318 318 320 321 321 324 327 331 331 327 320 329 323 10 143 104 341 19 43 355 318 348 22 353 344 200 158 199 145 215 172 148 128 186 181 188 315 309 295 248
313 316 316 315 319 321 318 315 310 313 314 312 316 317 320 318 315 315 328 35 221 256 235 146 201 254 234 43 211 328 274 272 218 98 121 201 283 184 171 192 178 180 223 180 250 249 287
311 313 314 316 318 318 320 318 312 309 307 309 310 311 314 308 291 261 317 9 231 222 76 38 225 292 252 180 262 321 213 237 209 187 187 160 246 172 45 134 182 153 195 55 102 119 312
310 310 311 314 314 312 314 312 312 313 312 316 320 316 306 285 241 215 112 235 239 141 152 198 187 98 319 324 325 343 213 168 212 184 63 347 290 259 130 97 30 170 145 92 331 267 266
307 307 307 309 310 312 314 316 317 316 314 315 317 306 264 229 214 219 208 219 254 222 193 185 197 210 221 206 185 210 260 246 148 138 90 114 168 62 65 205 180 143 196 198 114 187 212
302 302 302 303 306 307 311 314 313 314 312 323 315 272 241 211 296 283 208 205 189 191 209 225 228 245 229 182 194 222 226 228 167 155 170 189 191 229 215 0 335 188 192 183 185 201 224
305 302 299 297 297 299 302 305 308 314 325 330 267 257 243 221 213 207 241 272 226 171 224 190 216 208 169 213 248 209 220 27 177 167 161 181 215 301 263 41 355 216 198 201 92 69 201
305 305 302 296 293 291 294 296 298 301 307 317 298 284 229 205 265 204 194 213 235 229 228 199 204 151 152 222 257 283 247 125 189 200 176 161 216 220 253 195 121 198 204 203 189 183 215
307 307 306 304 302 293 288 288 296 298 298 307 260 269 266 281 240 242 22 351 203 250 206 199 266 230 187 208 215 219 228 203 206 210 193 179 246 241 268 267 244 233 211 203 212 222 220
304 303 302 304 304 301 297 293 288 300 301 291 271 270 265 275 291 185 174 204 227 230 175 218 220 260 223 245 230 249 155 180 204 162 159 178 260 35 274 272 279 271 242 232 224 231 246
302 302 303 302 302 303 300 295 282 275 283 276 261 271 275 264 208 201 227 226 238 198 231 249 210 235 207 234 218 192 198 197 203 170 183 162 206 200 268 337 317 280 240 221 226 220 225
299 300 301 297 294 291 293 295 290 264 264 273 265 264 257 269 248 256 208 223 247 261 270 229 227 195 227 180 178 159 226 228 224 210 183 164 156 180 283 349 263 40 176 183 229 238 205
296 295 299 299 295 296 286 284 291 284 257 266 274 260 252 270 262 267 257 254 256 264 257 246 235 237 168 129 130 260 244 292 239 196 174 145 172 212 252 225 306 296 183 171 175 256 214
297 300 297 299 296 300 301 284 284 285 281 268 263 269 258 275 245 257 247 260 260 200 236 218 221 186 169 175 168 220 228 221 218 162 69 173 209 191 151 238 254 205 196 183 140 277 177
296 292 301 307 302 296 294 296 290 282 285 279 276 268 270 271 267 252 235 262 250 223 227 164 177 176 179 193 199 207 227 160 208 190 167 162 198 216 214 240 274 216 165 149 143 217 163
291 289 293 297 310 306 303 302 295 286 283 284 281 277 268 267 280 264 267 247 244 224 252 158 109 192 163 221 215 205 209 208 155 176 181 172 169 185 197 215 264 144 115 174 186 139 154
291 294 295 297 307 306 311 307 285 289 283 282 281 282 282 272 266 280 273 271 268 258 249 195 246 170 190 196 215 205 213 153 162 244 159 210 199 179 198 210 138 186 163 193 171 158 167